Satellite: MET-3/5
Catalog number: 21655
Epoch time:      10293.83265430
Element set:    0945
Inclination:      082.5587 deg
RA of node:       219.8536 deg
Eccentricity:    0.0014747
Arg of perigee:   038.8996 deg
Mean anomaly:     321.3192 deg
Mean motion:   13.17027324 rev/day
Decay rate:        5.1e-07 rev/day^2
Epoch rev:           92221
Checksum:              310

Satellite: MET-2/21
Catalog number: 22782
Epoch time:      10293.90007598
Element set:    0918
Inclination:      082.5479 deg
RA of node:       152.7261 deg
Eccentricity:    0.0023586
Arg of perigee:   052.3379 deg
Mean anomaly:     307.9914 deg
Mean motion:   13.83648882 rev/day
Decay rate:       -4.0e-08 rev/day^2
Epoch rev:           86546
Checksum:              339

Satellite: OKEAN-4
Catalog number: 23317
Epoch time:      10293.69835905
Element set:    0371
Inclination:      082.5400 deg
RA of node:       236.6960 deg
Eccentricity:    0.0021672
Arg of perigee:   183.7040 deg
Mean anomaly:     176.4023 deg
Mean motion:   14.82879337 rev/day
Decay rate:       5.57e-06 rev/day^2
Epoch rev:           86505
Checksum:              309

Satellite: NOAA-14
Catalog number: 23455
Epoch time:      10294.75170353
Element set:     239
Inclination:      098.8705 deg
RA of node:       014.5619 deg
Eccentricity:    0.0008639
Arg of perigee:   234.7601 deg
Mean anomaly:     125.3246 deg
Mean motion:   14.13798288 rev/day
Decay rate:       1.21e-06 rev/day^2
Epoch rev:           81547
Checksum:              310

Satellite: NOAA-15
Catalog number: 25338
Epoch time:      10294.76558059
Element set:     567
Inclination:      098.6337 deg
RA of node:       279.5069 deg
Eccentricity:    0.0011624
Arg of perigee:   068.2407 deg
Mean anomaly:     292.0486 deg
Mean motion:   14.24861612 rev/day
Decay rate:       1.84e-06 rev/day^2
Epoch rev:           64678
Checksum:              341

Satellite: RESURS
Catalog number: 25394
Epoch time:      10293.61193720
Element set:    0634
Inclination:      098.3029 deg
RA of node:       304.8518 deg
Eccentricity:    0.0000807
Arg of perigee:   165.9915 deg
Mean anomaly:     194.1288 deg
Mean motion:   14.24212561 rev/day
Decay rate:        9.0e-08 rev/day^2
Epoch rev:           63820
Checksum:              291

Satellite: FENGYUN1
Catalog number: 25730
Epoch time:      10293.85001996
Element set:     164
Inclination:      098.7971 deg
RA of node:       255.5964 deg
Eccentricity:    0.0020749
Arg of perigee:   273.3503 deg
Mean anomaly:     086.5262 deg
Mean motion:   14.08344008 rev/day
Decay rate:      1.011e-05 rev/day^2
Epoch rev:           58937
Checksum:              308

Satellite: OKEAN-0
Catalog number: 25860
Epoch time:      10294.70937350
Element set:     129
Inclination:      097.8503 deg
RA of node:       263.2248 deg
Eccentricity:    0.0001826
Arg of perigee:   060.7273 deg
Mean anomaly:     299.4117 deg
Mean motion:   14.73673253 rev/day
Decay rate:       1.44e-06 rev/day^2
Epoch rev:           60553
Checksum:              296

Satellite: NOAA-16
Catalog number: 26536
Epoch time:      10294.73213801
Element set:      42
Inclination:      099.1662 deg
RA of node:       315.1567 deg
Eccentricity:    0.0010452
Arg of perigee:   346.5422 deg
Mean anomaly:     013.5951 deg
Mean motion:   14.12582256 rev/day
Decay rate:       1.87e-06 rev/day^2
Epoch rev:           51969
Checksum:              291

Satellite: NOAA-17
Catalog number: 27453
Epoch time:      10294.73760387
Element set:      32
Inclination:      098.4165 deg
RA of node:       339.9879 deg
Eccentricity:    0.0012470
Arg of perigee:   124.3239 deg
Mean anomaly:     235.9613 deg
Mean motion:   14.24201236 rev/day
Decay rate:       1.72e-06 rev/day^2
Epoch rev:           43271
Checksum:              301

Satellite: NOAA-18
Catalog number: 28654
Epoch time:      10294.77148696
Element set:     522
Inclination:      098.9645 deg
RA of node:       240.7460 deg
Eccentricity:    0.0015191
Arg of perigee:   057.5957 deg
Mean anomaly:     302.7151 deg
Mean motion:   14.11398729 rev/day
Decay rate:        7.3e-07 rev/day^2
Epoch rev:           27929
Checksum:              340

Satellite: NOAA-19
Catalog number: 33591
Epoch time:      10294.78708181
Element set:     718
Inclination:      098.8002 deg
RA of node:       234.2756 deg
Eccentricity:    0.0013399
Arg of perigee:   293.3380 deg
Mean anomaly:     066.6853 deg
Mean motion:   14.11095535 rev/day
Decay rate:       2.05e-06 rev/day^2
Epoch rev:            8776
Checksum:              325

/EX
SB KEPS @ AMSAT  $ORB10294.M
Orbital Elements  10294.MISC

HR AMSAT ORBITAL ELEMENTS FOR MANNED AND MISCELLANEOUS SATELLITES
FROM WA5QGD FORT WORTH,TX October 21, 2010
BID: ORB10294.M
TO ALL RADIO AMATEURS BT

Satellite: HUBBLE
Catalog number: 20580
Epoch time:      10292.98334943
Element set:     664
Inclination:      028.4689 deg
RA of node:       145.1032 deg
Eccentricity:    0.0003368
Arg of perigee:   092.2778 deg
Mean anomaly:     267.8229 deg
Mean motion:   15.01065959 rev/day
Decay rate:       6.13e-06 rev/day^2
Epoch rev:           92352
Checksum:              313

Satellite: ISS
Catalog number: 25544
Epoch time:      10295.03824160
Element set:     121
Inclination:      051.6460 deg
RA of node:       301.5784 deg
Eccentricity:    0.0007482
Arg of perigee:   108.3355 deg
Mean anomaly:     301.2197 deg
Mean motion:   15.71952222 rev/day
Decay rate:     2.3707e-04 rev/day^2
Epoch rev:           68342
Checksum:              269

